Temperature
21 21 21 21 20 20 20 20 20 20 19 19 19 19 19 20 20 20 20 19 19 19 19 19 19 19 19 19 19 19 19 20 20 20 20 19 19 19 19 19 19 18 18
21 21 21 21 20 20 20 20 20 20 19 19 19 19 19 19 19 19 19 19 19 19 19 19 19 19 19 19 19 19 19 20 20 20 19 19 19 19 19 19 19 19 19
21 22 21 20 20 20 20 20 20 20 19 19 19 19 19 19 19 19 19 19 19 19 19 19 19 19 19 19 19 19 19 19 19 19 19 19 19 19 19 19 19 19 19
21 21 21 21 20 20 20 20 20 19 19 19 19 19 19 19 19 19 19 19 19 19 19 19 19 19 19 19 19 19 19 19 19 19 18 19 19 19 19 19 19 19 19
20 21 21 21 20 20 20 20 19 19 19 19 19 19 19 19 19 19 19 19 19 19 19 19 19 19 19 19 19 19 19 19 19 19 18 19 18 19 19 19 19 19 19
20 20 21 21 21 20 20 20 19 19 19 19 19 19 19 19 19 19 19 19 19 18 18 18 18 18 18 19 19 19 19 19 19 18 18 18 18 18 19 19 19 19 19
20 20 21 21 21 20 20 19 19 19 19 19 19 19 19 19 19 19 18 19 19 18 18 18 18 18 18 18 19 19 19 19 19 18 18 18 18 18 19 19 19 19 19
20 20 21 21 20 20 20 19 19 19 19 19 19 19 19 19 19 19 18 18 18 18 18 18 18 18 18 18 19 19 19 19 18 18 18 18 18 18 19 19 18 18 18
21 20 21 21 20 20 20 19 19 19 19 19 19 19 19 19 19 19 18 18 19 19 18 18 18 18 18 18 19 19 19 18 18 18 18 18 18 18 19 18 18 18 18
22 21 20 20 20 20 20 20 19 19 19 19 19 19 19 18 18 18 18 19 19 19 19 18 18 18 18 19 19 19 19 18 18 18 18 18 18 18 18 18 18 18 18
22 22 21 20 19 19 19 19 19 19 19 19 19 19 19 18 18 18 18 18 19 19 19 19 18 19 19 19 19 19 19 18 18 18 18 18 18 18 18 18 18 18 18
23 22 21 21 20 19 19 19 19 19 19 19 19 19 19 18 18 17 17 18 19 19 19 19 19 19 19 18 19 19 19 19 19 18 18 18 18 18 18 18 18 18 18
23 22 22 21 20 20 19 19 19 19 19 19 18 19 19 18 18 18 18 18 19 19 19 19 19 19 18 18 19 19 19 19 18 18 18 18 18 18 18 18 18 18 18
23 23 22 21 21 20 20 19 19 19 19 19 19 18 18 18 18 18 18 18 18 18 18 18 19 19 19 19 19 19 19 18 18 18 17 17 18 18 18 18 18 18 18
24 23 23 22 21 21 20 20 19 19 19 19 19 18 18 19 19 19 19 18 18 18 18 18 18 19 19 19 19 19 19 18 18 17 17 17 17 18 18 18 18 18 18
25 24 23 23 22 21 21 20 19 19 19 19 19 19 19 19 19 19 19 19 18 18 18 19 19 19 19 19 18 18 18 18 18 17 17 17 17 17 17 17 17 17 18
25 25 24 23 23 22 21 20 20 19 19 19 19 19 19 19 19 19 19 19 19 19 19 19 19 19 19 18 18 18 18 18 18 17 17 17 17 17 17 17 17 17 17
25 25 25 24 23 23 22 21 20 20 20 19 19 19 19 19 19 19 19 19 19 19 19 19 19 18 18 18 18 18 18 18 18 18 18 17 17 17 17 17 17 17 17
25 25 25 24 23 23 22 21 21 20 20 20 19 19 19 19 19 19 19 19 19 19 18 18 18 18 18 18 18 18 18 18 18 18 18 18 17 17 17 17 17 17 17
24 24 24 24 23 23 22 21 21 20 20 20 19 19 19 19 19 19 19 18 18 18 18 18 18 18 18 18 18 18 18 18 18 18 18 18 18 17 17 17 17 17 17
22 23 23 24 23 23 22 21 21 20 20 19 19 19 19 19 19 18 18 18 18 18 18 18 17 17 17 17 17 17 17 18 18 18 18 18 18 18 17 17 17 17 17
20 21 22 22 23 22 22 22 21 20 20 19 19 19 18 18 18 18 18 18 18 17 17 17 17 17 17 17 17 17 17 17 18 18 18 18 18 18 18 17 17 17 17
19 19 20 21 22 22 22 21 21 20 19 19 18 18 18 18 18 18 17 17 17 17 17 17 17 17 17 17 17 16 16 17 17 18 17 17 18 18 17 17 17 17 17
17 17 18 19 20 21 21 21 20 20 19 19 18 18 18 18 17 17 17 17 17 17 17 17 17 16 16 17 17 16 16 17 16 17 17 17 17 17 17 17 17 17 17
16 16 17 17 18 19 20 20 20 19 19 18 18 18 17 17 17 17 17 17 17 17 16 16 16 16 16 16 16 16 16 16 16 16 16 17 17 17 17 17 17 17 17
15 16 16 16 17 17 18 19 19 18 18 18 17 17 16 16 16 16 16 16 16 16 16 16 16 16 16 16 16 16 16 16 16 16 16 16 17 17 17 17 16 16 16
Wind_Speed
13 16 17 16 14 13 13 13 13 12 12 12 11 11 11 11 11 10 10 10 10 9 8 8 6 5 5 5 5 6 6 7 7 6 5 6 6 7 8 8 7 6 8
18 18 18 17 15 14 13 12 12 11 11 11 11 11 11 11 10 10 10 10 9 9 8 7 6 6 5 5 6 6 7 6 5 4 4 5 6 7 8 9 11 9 8
19 18 17 17 15 14 13 11 11 10 10 11 11 11 11 10 10 10 9 9 9 9 8 7 6 6 6 6 6 6 6 5 4 2 2 4 7 8 9 9 10 10 9
19 18 17 17 16 14 13 11 10 10 10 11 11 11 11 10 10 9 9 9 9 9 9 8 7 6 6 6 6 6 6 4 2 2 3 5 7 8 8 9 9 9 9
17 17 19 18 15 14 12 11 11 10 10 10 11 11 10 10 10 10 10 9 9 9 9 8 7 6 6 6 6 5 4 2 2 3 7 10 9 7 7 7 8 8 8
17 18 19 17 15 14 12 11 11 11 10 11 10 10 10 9 9 10 10 10 10 9 9 8 7 7 6 6 6 5 3 0 3 4 8 10 8 6 6 6 6 6 6
17 17 18 16 15 13 12 11 11 11 11 11 10 10 9 9 9 10 11 11 10 9 8 8 8 8 8 8 7 5 2 1 2 3 8 10 8 5 5 5 4 5 5
17 17 17 16 14 13 12 11 11 11 12 11 10 10 9 9 10 11 11 11 10 8 7 7 7 8 9 8 7 4 1 3 2 5 10 10 7 5 4 4 4 4 3
16 16 15 15 14 12 12 12 12 12 12 11 11 10 10 9 10 11 11 11 10 8 7 6 6 7 8 7 5 2 1 4 3 3 10 10 7 6 5 4 4 3 3
14 16 16 16 15 14 12 12 12 12 13 12 11 11 10 10 10 11 12 11 9 8 6 5 5 6 6 6 4 2 3 5 4 4 12 10 8 6 5 4 4 3 3
10 12 14 14 14 14 15 15 14 12 12 13 12 11 12 11 12 11 12 12 9 8 6 5 4 5 6 6 6 6 6 8 5 7 11 11 8 5 4 3 3 3 3
9 9 10 11 11 10 10 14 12 12 12 12 12 13 12 12 12 12 16 12 10 8 7 6 6 7 8 9 10 9 8 9 3 9 10 9 6 4 2 2 2 2 2
10 10 10 10 10 9 6 9 8 9 11 12 12 14 13 11 10 13 11 10 10 10 9 9 9 10 12 10 9 9 2 4 7 11 10 8 4 2 2 1 1 1 1
11 11 11 11 11 9 7 6 6 5 6 7 11 14 12 6 7 10 9 12 11 10 10 10 9 12 9 8 5 3 6 3 8 10 9 6 4 2 2 2 2 2 1
11 11 12 12 12 10 8 6 7 6 6 9 11 13 12 4 5 4 6 10 10 10 7 5 6 4 1 3 4 5 5 5 8 9 9 7 5 3 1 1 2 2 1
11 11 10 11 11 11 10 8 6 6 7 8 8 10 12 8 4 3 4 5 5 7 9 6 3 4 2 3 3 4 4 5 5 9 11 8 6 4 3 2 3 3 2
7 9 11 11 10 12 13 11 7 6 8 5 6 10 10 10 6 4 4 6 3 6 8 4 2 2 3 4 2 0 2 3 5 3 8 10 9 6 5 4 4 3 3
2 4 9 11 10 10 9 10 8 6 6 5 7 7 8 10 9 5 3 4 4 5 3 3 1 1 3 2 3 3 2 3 4 0 4 9 11 10 7 6 5 5 4
8 4 5 10 10 9 9 7 7 6 6 5 6 5 5 7 8 5 3 2 4 2 2 4 2 1 1 1 1 1 2 3 2 2 4 7 11 12 12 8 7 7 6
8 9 6 7 10 9 8 7 6 5 7 5 4 4 5 4 6 6 3 2 2 3 1 1 3 2 2 1 3 2 2 2 2 3 3 2 5 11 13 12 10 8 8
11 10 9 6 8 8 8 8 7 6 6 6 5 5 6 4 4 6 4 3 1 3 2 1 1 1 1 1 2 3 3 4 5 4 3 2 2 8 11 13 12 11 10
15 15 14 11 6 8 8 10 9 8 6 6 5 5 6 5 4 4 5 4 3 2 2 2 1 2 1 2 2 1 2 4 4 3 4 3 3 3 3 7 12 13 13
14 16 15 16 13 6 7 8 8 8 7 6 6 5 5 5 4 4 4 4 4 4 4 4 4 5 5 4 4 3 3 4 2 4 4 5 4 2 3 2 5 10 13
14 14 15 16 16 11 4 7 10 8 8 7 6 5 5 4 3 4 3 3 3 3 4 5 6 5 6 5 5 4 4 4 3 2 3 3 6 5 3 1 1 2 9
13 13 13 13 13 13 8 1 5 6 6 5 6 7 5 4 3 3 2 2 2 2 4 5 6 6 5 6 5 4 3 2 4 3 2 3 2 2 2 2 2 1 4
12 12 12 12 12 12 11 8 6 7 8 8 7 7 4 3 3 3 3 2 1 1 3 4 5 4 4 5 4 4 3 3 3 3 4 4 3 3 3 2 2 2 3
Wind_Direction
129 132 141 137 132 125 119 114 112 113 113 111 110 107 104 100 97 96 96 95 94 94 95 96 100 106 114 114 106 101 99 98 92 85 77 70 63 54 45 34 26 77 76
130 133 142 138 135 130 124 119 117 117 117 117 114 111 108 105 102 100 100 99 99 97 95 94 95 101 114 124 126 120 113 106 102 98 88 80 75 65 55 51 55 70 67
127 134 142 141 139 135 130 127 124 123 124 121 118 115 112 110 108 106 104 103 103 101 98 96 97 102 115 129 134 129 118 113 114 97 79 84 92 77 68 64 65 68 66
129 140 143 143 142 140 139 137 134 132 130 126 123 119 117 115 112 109 103 102 103 103 101 97 97 103 115 126 130 126 117 106 77 20 59 80 84 81 73 68 70 71 68
134 141 138 147 146 147 148 148 145 141 137 133 129 125 121 119 116 111 104 99 99 98 96 93 93 99 112 125 129 127 119 93 355 6 71 86 83 78 75 70 72 74 73
134 133 141 151 152 155 158 156 154 149 146 140 137 132 128 126 121 116 109 101 96 93 89 85 86 93 105 117 124 126 126 66 326 38 69 91 94 84 82 79 79 79 77
136 134 145 152 156 160 163 162 161 157 154 150 146 142 139 135 130 123 117 109 100 92 85 79 81 88 95 105 113 121 131 311 302 79 88 96 103 98 86 83 83 84 86
138 138 145 154 159 163 166 168 168 166 161 158 156 151 147 144 138 133 127 118 108 98 88 79 80 90 97 101 105 110 110 295 205 140 109 100 95 87 78 72 72 84 94
140 140 148 159 163 167 171 175 175 172 167 164 161 156 153 149 144 141 134 127 120 111 100 88 85 96 105 107 106 112 251 297 309 153 114 95 84 72 69 65 61 72 92
148 149 157 164 169 171 174 178 179 177 173 169 165 162 157 154 153 152 147 138 132 126 117 108 104 113 124 132 147 208 262 288 277 127 107 101 86 70 63 60 60 68 86
159 157 161 165 169 173 173 174 177 181 179 171 170 169 167 175 173 174 160 147 147 144 142 143 152 162 165 177 198 221 247 254 213 103 102 107 97 82 69 64 62 67 78
167 162 156 158 160 168 172 159 175 180 177 184 180 177 193 205 191 168 148 156 160 164 170 182 197 209 206 204 216 220 242 246 195 106 98 102 101 102 99 83 67 63 70
173 168 164 164 164 162 157 158 173 172 172 194 186 185 201 209 173 140 156 158 174 185 196 195 212 225 219 209 205 199 180 356 65 95 103 100 104 123 161 162 132 92 87
173 173 175 170 172 170 165 156 157 166 174 184 193 198 200 198 187 167 170 173 182 198 205 189 215 223 220 184 213 172 136 79 82 101 111 110 117 136 190 202 185 161 158
169 174 182 177 178 175 159 160 168 168 175 189 198 208 195 181 198 176 170 168 185 190 179 230 234 191 128 67 34 37 60 85 103 109 128 134 136 132 141 197 186 172 165
168 178 176 178 177 168 160 177 174 170 174 188 193 212 193 179 188 157 176 156 192 172 171 220 234 123 130 93 48 50 20 36 88 129 141 147 146 140 134 139 158 167 173
171 176 169 174 178 174 172 180 168 171 174 184 192 213 189 176 176 162 190 156 193 180 179 215 187 123 125 125 154 201 95 44 331 117 140 155 152 136 127 126 132 140 143
325 195 174 174 179 176 164 167 164 178 170 174 181 205 193 172 180 170 173 155 179 173 165 120 46 103 128 168 179 185 167 152 251 53 194 156 152 143 130 121 121 124 125
327 292 188 176 179 177 163 163 163 174 159 156 167 182 192 175 178 148 133 123 158 133 139 150 184 175 140 151 143 150 276 190 193 249 252 151 147 148 140 135 130 128 128
316 302 269 193 180 180 166 168 162 158 154 154 155 168 181 168 149 122 115 116 114 116 105 109 134 97 53 28 301 247 223 249 230 244 324 66 171 155 150 153 149 140 136
337 319 299 249 197 185 172 170 165 164 159 156 158 158 157 144 126 120 130 146 125 130 148 192 117 110 53 339 313 318 310 266 256 202 199 270 253 140 160 168 166 158 149
355 347 335 323 273 213 187 179 176 168 164 152 146 140 144 152 157 150 157 156 147 136 172 220 166 160 210 238 222 241 310 317 299 260 194 195 283 165 208 180 170 166 166
358 351 343 336 325 283 209 186 175 159 154 145 149 148 153 161 164 151 149 157 178 179 195 216 216 202 210 231 230 191 190 229 270 295 233 194 220 222 213 250 186 175 157
1 354 350 348 345 334 278 199 178 164 159 154 147 138 132 125 131 140 138 145 169 186 201 218 221 215 209 224 241 232 216 194 178 284 311 243 203 199 206 235 44 65 137
7 2 358 1 3 3 6 40 152 140 127 117 119 121 112 93 90 102 102 120 154 190 215 223 228 214 204 214 230 232 240 246 222 199 253 295 288 190 184 209 160 226 150
12 11 9 15 20 24 31 41 75 108 116 118 116 116 106 95 79 81 96 106 139 216 241 242 232 214 207 219 231 224 210 213 218 201 213 240 258 256 206 191 178 192 182
Height
1513 1514 1517 1519 1521 1524 1526 1528 1530 1532 1533 1534 1535 1536 1537 1539 1540 1541 1542 1543 1544 1545 1547 1548 1549 1550 1551 1552 1552 1553 1554 1555 1556 1557 1557 1557 1557 1557 1556 1556 1556 1556 1557
1512 1515 1518 1520 1523 1525 1527 1529 1531 1533 1534 1536 1536 1537 1539 1540 1541 1542 1543 1544 1545 1546 1547 1548 1549 1550 1551 1552 1553 1554 1555 1556 1557 1558 1558 1558 1558 1558 1558 1558 1558 1558 1558
1512 1515 1518 1521 1523 1526 1528 1531 1533 1534 1535 1537 1538 1539 1540 1541 1542 1543 1544 1545 1546 1547 1548 1549 1550 1551 1551 1552 1553 1554 1555 1556 1557 1558 1559 1559 1559 1559 1559 1559 1559 1559 1559
1513 1516 1519 1522 1524 1527 1529 1531 1533 1535 1536 1538 1539 1540 1541 1542 1543 1544 1545 1546 1547 1548 1548 1549 1550 1551 1552 1553 1554 1555 1556 1557 1558 1559 1559 1559 1560 1561 1561 1560 1560 1560 1560
1515 1518 1520 1523 1525 1528 1530 1532 1534 1536 1537 1538 1540 1541 1542 1543 1544 1546 1547 1547 1548 1549 1549 1550 1551 1551 1552 1553 1554 1555 1556 1558 1559 1560 1560 1560 1561 1562 1562 1561 1561 1561 1561
1517 1519 1521 1524 1526 1528 1530 1533 1535 1536 1538 1539 1541 1542 1543 1544 1545 1546 1547 1548 1549 1549 1550 1551 1551 1552 1553 1554 1555 1556 1557 1558 1559 1560 1560 1561 1561 1562 1562 1562 1562 1562 1562
1519 1520 1523 1525 1527 1529 1531 1533 1535 1537 1538 1540 1541 1543 1544 1545 1546 1547 1548 1549 1549 1550 1551 1551 1552 1553 1554 1555 1556 1556 1558 1559 1560 1560 1561 1561 1561 1562 1563 1563 1563 1563 1563
1519 1521 1523 1526 1528 1529 1531 1533 1535 1537 1539 1540 1542 1543 1544 1545 1546 1547 1548 1549 1550 1551 1551 1552 1553 1554 1554 1555 1556 1557 1558 1559 1561 1562 1561 1561 1562 1562 1563 1563 1563 1563 1563
1521 1522 1524 1526 1528 1530 1531 1533 1535 1537 1539 1540 1542 1543 1544 1545 1546 1547 1548 1549 1550 1551 1552 1553 1554 1555 1555 1556 1557 1558 1559 1561 1561 1562 1562 1562 1562 1562 1562 1563 1563 1563 1563
1522 1523 1524 1526 1528 1530 1532 1533 1535 1537 1539 1540 1542 1543 1545 1546 1547 1548 1548 1549 1550 1551 1552 1553 1554 1555 1556 1557 1558 1559 1560 1561 1562 1563 1561 1562 1562 1562 1562 1562 1563 1563 1563
1523 1524 1525 1527 1528 1530 1531 1533 1535 1536 1538 1540 1542 1543 1545 1546 1547 1548 1549 1550 1551 1552 1553 1554 1555 1556 1557 1558 1559 1560 1561 1561 1563 1563 1561 1562 1562 1562 1562 1562 1562 1563 1563
1523 1525 1527 1528 1529 1531 1533 1533 1535 1536 1538 1539 1541 1543 1545 1546 1548 1549 1549 1550 1551 1552 1553 1554 1555 1556 1558 1559 1560 1561 1561 1562 1563 1561 1561 1561 1560 1560 1561 1561 1562 1562 1563
1522 1524 1526 1528 1529 1531 1532 1533 1535 1536 1537 1539 1541 1543 1545 1546 1548 1549 1550 1551 1551 1552 1553 1555 1556 1557 1557 1559 1561 1562 1562 1563 1563 1561 1560 1560 1559 1559 1559 1560 1561 1561 1562
1520 1523 1525 1526 1528 1530 1532 1533 1534 1535 1536 1538 1540 1542 1544 1546 1548 1549 1549 1550 1551 1552 1553 1555 1556 1557 1559 1561 1562 1563 1562 1563 1562 1560 1560 1559 1558 1557 1558 1558 1559 1560 1561
1518 1521 1523 1525 1527 1528 1530 1532 1533 1534 1535 1537 1539 1541 1544 1546 1548 1550 1550 1550 1551 1552 1554 1556 1556 1559 1560 1561 1562 1562 1562 1562 1561 1560 1559 1558 1557 1557 1557 1558 1558 1559 1560
1516 1519 1521 1523 1525 1526 1528 1530 1532 1532 1534 1536 1538 1540 1543 1545 1547 1549 1551 1550 1552 1553 1555 1556 1557 1558 1559 1560 1561 1561 1562 1562 1561 1560 1559 1558 1558 1557 1557 1557 1557 1558 1559
1515 1516 1518 1521 1523 1524 1525 1527 1529 1531 1532 1534 1536 1539 1541 1543 1545 1547 1549 1549 1551 1553 1554 1556 1557 1558 1558 1559 1560 1561 1561 1561 1561 1561 1559 1558 1558 1557 1557 1557 1557 1557 1558
1513 1514 1516 1517 1520 1522 1524 1525 1527 1529 1531 1532 1534 1537 1539 1541 1543 1545 1547 1548 1550 1552 1553 1554 1556 1557 1558 1558 1559 1560 1560 1560 1560 1561 1560 1558 1558 1557 1557 1557 1557 1557 1557
1510 1512 1513 1514 1516 1519 1521 1523 1525 1527 1528 1530 1532 1534 1537 1539 1541 1543 1545 1547 1548 1550 1551 1553 1554 1556 1557 1557 1558 1559 1560 1560 1560 1559 1560 1559 1558 1557 1557 1557 1557 1557 1557
1509 1510 1511 1511 1512 1515 1517 1519 1521 1524 1525 1526 1529 1531 1534 1536 1538 1540 1542 1544 1546 1548 1549 1551 1553 1554 1555 1555 1557 1558 1558 1559 1558 1559 1559 1559 1559 1557 1557 1557 1557 1557 1557
1507 1507 1508 1509 1508 1510 1512 1513 1515 1517 1520 1522 1525 1527 1530 1532 1534 1536 1538 1541 1543 1545 1547 1549 1550 1551 1552 1554 1555 1555 1556 1557 1557 1557 1557 1558 1558 1558 1557 1557 1557 1557 1557
1504 1503 1503 1504 1505 1505 1505 1506 1508 1511 1514 1517 1520 1523 1525 1528 1530 1532 1535 1537 1540 1542 1544 1546 1547 1548 1550 1551 1552 1553 1553 1555 1554 1555 1555 1556 1556 1557 1557 1557 1557 1557 1556
1504 1502 1500 1499 1499 1500 1500 1500 1500 1502 1508 1511 1515 1518 1521 1524 1527 1529 1531 1533 1536 1538 1540 1542 1544 1545 1546 1547 1549 1551 1551 1551 1551 1552 1553 1553 1554 1555 1555 1556 1557 1556 1556
1504 1501 1498 1496 1494 1494 1495 1495 1493 1493 1498 1503 1508 1513 1516 1519 1522 1525 1527 1529 1531 1534 1536 1537 1539 1541 1542 1543 1545 1547 1548 1549 1550 1549 1551 1551 1552 1552 1553 1554 1555 1555 1555
1503 1500 1497 1494 1492 1491 1491 1492 1491 1492 1493 1498 1503 1507 1510 1514 1517 1520 1523 1524 1526 1529 1531 1533 1535 1536 1538 1539 1541 1543 1544 1545 1546 1547 1548 1549 1549 1550 1550 1551 1551 1553 1553
1503 1500 1497 1494 1492 1490 1489 1490 1491 1492 1493 1496 1499 1502 1505 1509 1513 1516 1519 1521 1523 1525 1528 1530 1531 1534 1535 1536 1538 1539 1540 1541 1542 1543 1544 1545 1546 1547 1547 1547 1548 1549 1550